Regional Weather Roundup
Issued by NWS

Home | Current Version | Previous Version | Text Only | Print | Product List | Glossary Off
Versions: 1 2 3 4 5 6 7 8 9 10 11 12 13 14 15 16 17 18 19 20 21 22 23 24 25 26 27 28 29 30 31 32 33 34 35 36 37 38 39 40 41 42 43 44 45 46 47 48 49 50

000
ASUS43 KBIS 300559
RWRND

NORTH DAKOTA REGIONAL WEATHER ROUNDUP
NATIONAL WEATHER SERVICE BISMARCK ND
100 AM CDT WED JUL 30 2014

NOTE: "FAIR" INDICATES FEW OR NO CLOUDS BELOW 12,000 FEET WITH NO
SIGNIFICANT WEATHER AND/OR OBSTRUCTIONS TO VISIBILITY.


NDZ001>003-009>011-017-300700-
NORTHWEST NORTH DAKOTA

CITY           SKY/WX    TMP DP  RH WIND       PRES   REMARKS
WILLISTON      CLEAR     61  57  87 N5        30.18R
6HR MIN TEMP:  61; 6HR MAX TEMP:  83;

MINOT          CLEAR     63  60  90 SW7       30.15S
$$

NDZ018>021-031>035-040>046-300700-
SOUTHWEST NORTH DAKOTA

CITY           SKY/WX    TMP DP  RH WIND       PRES   REMARKS
BISMARCK       CLEAR     63  57  81 NE3       30.17R
6HR MIN TEMP:  60; 6HR MAX TEMP:  78;

DICKINSON      CLEAR     56  53  90 W5        30.17S
GARRISON         N/A     60  59  96 N3        30.17R
6HR MIN TEMP:  60; 6HR MAX TEMP:  75;

HETTINGER ARPT PTCLDY    59  54  83 NE8       30.18R
$$

NDZ004>008-012>016-024-026-027-054-300700-
NORTHEAST NORTH DAKOTA

CITY           SKY/WX    TMP DP  RH WIND       PRES   REMARKS
GRAND FORKS    CLEAR     57  54  89 W6        30.11R
DEVILS LAKE    CLEAR     57  52  82 CALM      30.13S
$$

NDZ022-023-025-028>030-036>039-047>053-300700-
SOUTHEAST NORTH DAKOTA

CITY           SKY/WX    TMP DP  RH WIND       PRES   REMARKS
FARGO          CLEAR     58  54  86 CALM      30.11S
6HR MIN TEMP:  58; 6HR MAX TEMP:  77;

JAMESTOWN      CLEAR     58  53  84 CALM      30.15R
$$




USA.gov is the U.S. government's official web portal to all federal, state and local government web resources and services.